Regional Weather Roundup
Issued by NWS

Current Version | Previous Version | Text Only | Print | Product List | Glossary On
Versions: 1 2 3 4 5 6 7 8 9 10 11 12 13 14 15 16 17 18 19 20 21 22 23 24 25 26 27 28 29 30 31 32 33 34 35 36 37 38 39 40 41 42 43 44 45 46 47 48 49 50
000
ASUS42 KKEY 290910
RWRKEY

FLORIDA REGIONAL WEATHER ROUNDUP FOR THE FLORIDA KEYS
NATIONAL WEATHER SERVICE KEY WEST FLORIDA
500 AM EDT SUN MAR 29 2015

...SOUTH FLORIDA AND THE KEYS...

CITY           SKY/WX    TMP DP  RH WIND       PRES   REMARKS
FORT MYERS     CLEAR     56  44  64 N7        30.22S
SW REGIONAL AP PTCLDY    54  44  69 N5        30.22F
NAPLES         MOCLDY    56  46  69 NE6       30.22R
MIAMI          CLOUDY    60  45  57 NW6       30.20S
WEST KENDALL   MOCLDY    57  45  64 N7        30.20S
HOMESTEAD      MOCLDY    58  46  66 N9        30.19S
MARATHON       CLOUDY    65  52  62 N14       30.17F
BOCA CHICA NAS MOCLDY    68  53  58 NE10      30.17F
KEY WEST INTL  CLOUDY    68  53  58 N10       30.17F

...INTERNATIONAL WEATHER...

CITY           SKY/WX    TMP DP  RH WIND       PRES   REMARKS
NASSAU BAHAMAS CLOUDY    70  57  64 N14       30.17R
CANCUN MEXICO  MOCLDY    75  66  73 NE14      30.11S
COZUMEL MEXICO CLOUDY    72  66  83 E8        30.10F

ADJACENT COASTAL WATERS...

STATION/POSITION TIME  SKY/WX   TEMP    WIND        PRES    WAVE
                                AIR SEA DIR/SP/G            HT/PER
                 (UTC)          (F)     (DEG/KT/KT) (MB)    (FT/S)
PULASKI SHOAL LI 0800            68      30/ 16/ 18 1022.2F
SAND KEY         0850            69      20/ 19/ 22 1021.6F
SOMBRERO KEY     0900            67      10/ 16/ 17 1022.2S
LONG KEY         0800            65 74   10/ 19/ 21 1022.8F
MOLASSES REEF    0900            63 76  360/ 17/ 19 1021.5S
FOWEY ROCKS      NOT AVBL

$$



USA.gov is the U.S. government's official web portal to all federal, state and local government web resources and services.